VIR1247 EDDH-EGCC

Flight info

Callsign VIR1247
Flight time 1h 30m
Altitude 32000
Route WSN5C WSN N125 ITMIZ DCT MIMVA DCT OTBED
Aircraft A346/H-SDE2E3FGHIJ3J4J5M1RWXY/LB1D1

Departure

Time 2026-04-20 15:38
Airport Hamburg Helmut Schmidt Airport (EDDH)

Arrival

Time 2026-04-20 17:08
Airport Manchester Airport (EGCC)
Time Latitude Longitude Altitude Speed Heading
2026-04-20 14:58 53.63410 10.00313 71 ft 0 kts 86°
2026-04-20 15:17 53.63411 10.00295 71 ft 2 kts 72°
2026-04-20 15:18 53.63404 10.00273 71 ft 2 kts 56°
2026-04-20 15:18 53.63394 10.00253 71 ft 2 kts 45°
2026-04-20 15:18 53.63383 10.00237 71 ft 2 kts 29°
2026-04-20 15:18 53.63369 10.00227 71 ft 2 kts 14°
2026-04-20 15:19 53.63354 10.00224 71 ft 2 kts 358°
2026-04-20 15:19 53.63339 10.00227 71 ft 2 kts 349°
2026-04-20 15:19 53.63335 10.00228 71 ft 0 kts 349°
2026-04-20 15:23 53.63350 10.00223 71 ft 10 kts 348°
2026-04-20 15:23 53.63437 10.00145 71 ft 8 kts 278°
2026-04-20 15:23 53.63404 10.00032 71 ft 12 kts 237°
2026-04-20 15:23 53.63343 9.99898 71 ft 16 kts 229°
2026-04-20 15:24 53.63261 9.99745 71 ft 18 kts 227°
2026-04-20 15:24 53.63171 9.99562 71 ft 21 kts 231°
2026-04-20 15:24 53.63077 9.99352 71 ft 23 kts 235°
2026-04-20 15:24 53.62972 9.99125 71 ft 25 kts 230°
2026-04-20 15:25 53.62857 9.98894 71 ft 27 kts 230°
2026-04-20 15:25 53.62732 9.98641 71 ft 28 kts 231°
2026-04-20 15:25 53.62605 9.98380 71 ft 29 kts 230°
2026-04-20 15:25 53.62460 9.98120 71 ft 31 kts 224°
2026-04-20 15:26 53.62314 9.97851 71 ft 31 kts 230°
2026-04-20 15:26 53.62189 9.97601 71 ft 1 kts 230°
2026-04-20 15:26 53.62188 9.97600 71 ft 0 kts 230°
2026-04-20 15:27 53.62188 9.97598 71 ft 0 kts 230°
2026-04-20 15:27 53.62159 9.97541 71 ft 13 kts 230°
2026-04-20 15:28 53.62091 9.97407 71 ft 16 kts 230°
2026-04-20 15:28 53.62009 9.97241 71 ft 19 kts 230°
2026-04-20 15:28 53.61917 9.97053 71 ft 22 kts 230°
2026-04-20 15:28 53.61822 9.96860 71 ft 21 kts 230°
2026-04-20 15:29 53.61731 9.96675 71 ft 11 kts 230°
2026-04-20 15:29 53.61709 9.96629 71 ft 0 kts 231°
2026-04-20 15:29 53.61688 9.96576 71 ft 9 kts 239°
2026-04-20 15:30 53.61687 9.96470 71 ft 10 kts 302°
2026-04-20 15:30 53.61692 9.96459 71 ft 0 kts 321°
2026-04-20 15:36 53.61695 9.96455 71 ft 0 kts 315°
2026-04-20 15:36 53.61744 9.96420 71 ft 13 kts 350°
2026-04-20 15:37 53.61822 9.96429 71 ft 20 kts 21°
2026-04-20 15:37 53.61999 9.96730 71 ft 54 kts 51°
2026-04-20 15:37 53.62436 9.97612 71 ft 135 kts 50°
2026-04-20 15:37 53.63135 9.99037 478 ft 171 kts 52°
2026-04-20 15:38 53.63869 10.00581 1479 ft 174 kts 52°
2026-04-20 15:38 53.64608 10.02126 2436 ft 170 kts 55°
2026-04-20 15:38 53.65339 10.03656 3243 ft 173 kts 56°
2026-04-20 15:38 53.66119 10.05306 3863 ft 190 kts 55°
2026-04-20 15:39 53.66978 10.07020 4714 ft 196 kts 53°
2026-04-20 15:39 53.67868 10.08745 5463 ft 206 kts 53°
2026-04-20 15:39 53.69018 10.10185 6331 ft 217 kts 24°
2026-04-20 15:39 53.70556 10.10447 7076 ft 237 kts 347°
2026-04-20 15:40 53.71994 10.09157 8025 ft 240 kts 308°
2026-04-20 15:40 53.72860 10.06834 9072 ft 236 kts 291°
2026-04-20 15:40 53.73536 10.04386 10117 ft 236 kts 289°
2026-04-20 15:40 53.74236 10.01813 10898 ft 248 kts 290°
2026-04-20 15:41 53.74901 9.99135 11652 ft 250 kts 278°
2026-04-20 15:41 53.74936 9.96240 12415 ft 251 kts 254°
2026-04-20 15:41 53.74339 9.93465 13184 ft 257 kts 245°
2026-04-20 15:41 53.73622 9.90668 13943 ft 265 kts 245°
2026-04-20 15:42 53.72880 9.87786 14700 ft 273 kts 245°
2026-04-20 15:42 53.72126 9.84846 15452 ft 280 kts 245°
2026-04-20 15:42 53.71343 9.81776 16216 ft 287 kts 245°
2026-04-20 15:42 53.70550 9.78662 16971 ft 293 kts 246°
2026-04-20 15:43 53.69736 9.75465 17732 ft 299 kts 246°
2026-04-20 15:43 53.68920 9.72262 18481 ft 304 kts 246°
2026-04-20 15:43 53.68079 9.68965 19238 ft 309 kts 246°
2026-04-20 15:43 53.67234 9.65650 19988 ft 313 kts 246°
2026-04-20 15:44 53.66350 9.62255 20749 ft 317 kts 245°
2026-04-20 15:44 53.65350 9.58934 21505 ft 320 kts 242°
2026-04-20 15:44 53.64222 9.55726 22255 ft 323 kts 239°
2026-04-20 15:44 53.62953 9.52599 23011 ft 325 kts 237°
2026-04-20 15:45 53.61633 9.49499 23712 ft 328 kts 237°
2026-04-20 15:45 53.60278 9.46307 23847 ft 347 kts 237°
2026-04-20 15:45 53.58835 9.42918 24010 ft 364 kts 237°
2026-04-20 15:45 53.57313 9.39368 24287 ft 378 kts 237°
2026-04-20 15:46 53.55750 9.35737 24538 ft 393 kts 237°
2026-04-20 15:46 53.54126 9.31968 24963 ft 403 kts 237°
2026-04-20 15:46 53.53149 9.29699 25352 ft 405 kts 237°
2026-04-20 15:46 53.52352 9.27854 25687 ft 406 kts 237°
2026-04-20 15:47 53.50684 9.23993 26350 ft 410 kts 237°
2026-04-20 15:47 53.49005 9.20119 26975 ft 414 kts 237°
2026-04-20 15:47 53.47290 9.16169 27672 ft 415 kts 237°
2026-04-20 15:47 53.45614 9.12323 28553 ft 411 kts 238°
2026-04-20 15:48 53.43927 9.08462 29421 ft 407 kts 238°
2026-04-20 15:48 53.42256 9.04637 30214 ft 404 kts 239°
2026-04-20 15:48 53.40620 9.00891 30972 ft 401 kts 239°
2026-04-20 15:48 53.39027 8.97080 31651 ft 395 kts 242°
2026-04-20 15:49 53.37577 8.93262 32041 ft 390 kts 244°
2026-04-20 15:49 53.36221 8.89315 32177 ft 386 kts 246°
2026-04-20 15:49 53.34989 8.85318 32184 ft 392 kts 249°
2026-04-20 15:50 53.32812 8.76949 32189 ft 391 kts 253°
2026-04-20 15:50 53.31041 8.68314 32185 ft 389 kts 255°
2026-04-20 15:51 53.29332 8.59622 32180 ft 404 kts 255°
2026-04-20 15:51 53.27548 8.50546 32173 ft 411 kts 255°
2026-04-20 15:52 53.25762 8.41498 32172 ft 415 kts 255°
2026-04-20 15:52 53.23927 8.32225 32174 ft 419 kts 254°
2026-04-20 15:53 53.21161 8.18306 32183 ft 419 kts 254°
2026-04-20 15:53 53.19309 8.09058 32192 ft 419 kts 254°
2026-04-20 15:54 53.17463 7.99898 32200 ft 419 kts 254°
2026-04-20 15:54 53.15592 7.90662 32209 ft 419 kts 254°
2026-04-20 15:55 53.13770 7.81468 32217 ft 418 kts 256°
2026-04-20 15:55 53.12337 7.72092 32220 ft 417 kts 260°
2026-04-20 15:56 53.11383 7.62574 32221 ft 415 kts 264°
2026-04-20 15:56 53.10964 7.54652 32226 ft 415 kts 268°
2026-04-20 15:57 53.10923 7.43475 32236 ft 414 kts 271°
2026-04-20 15:57 53.11053 7.33817 32246 ft 414 kts 270°
2026-04-20 15:58 53.11181 7.24242 32246 ft 414 kts 270°
2026-04-20 15:58 53.11308 7.14685 32246 ft 414 kts 270°
2026-04-20 15:59 53.11432 7.05149 32248 ft 411 kts 270°
2026-04-20 15:59 53.11548 6.95614 32248 ft 409 kts 269°
2026-04-20 16:00 53.11650 6.86169 32247 ft 409 kts 269°
2026-04-20 16:00 53.11745 6.76661 32247 ft 409 kts 269°
2026-04-20 16:01 53.11834 6.67188 32248 ft 409 kts 269°
2026-04-20 16:01 53.11915 6.57768 32248 ft 409 kts 269°
2026-04-20 16:02 53.11989 6.48316 32248 ft 409 kts 269°
2026-04-20 16:02 53.12057 6.38793 32248 ft 409 kts 269°
2026-04-20 16:03 53.12116 6.29340 32249 ft 409 kts 269°
2026-04-20 16:03 53.12168 6.19882 32247 ft 409 kts 269°
2026-04-20 16:04 53.12214 6.10429 32247 ft 409 kts 269°
2026-04-20 16:04 53.12252 6.00993 32247 ft 409 kts 269°
2026-04-20 16:05 53.12277 5.93088 32247 ft 409 kts 269°
2026-04-20 16:05 53.12304 5.81957 32247 ft 409 kts 269°
2026-04-20 16:06 53.12319 5.72520 32247 ft 409 kts 269°
2026-04-20 16:06 53.12326 5.63108 32248 ft 409 kts 269°
2026-04-20 16:07 53.12326 5.53633 32248 ft 409 kts 269°
2026-04-20 16:07 53.12318 5.44133 32248 ft 409 kts 269°
2026-04-20 16:08 53.12302 5.34702 32248 ft 409 kts 268°
2026-04-20 16:08 53.12279 5.25221 32248 ft 409 kts 268°
2026-04-20 16:09 53.12250 5.15777 32247 ft 409 kts 268°
2026-04-20 16:09 53.12212 5.06288 32247 ft 409 kts 268°
2026-04-20 16:10 53.12171 4.96839 32248 ft 408 kts 268°
2026-04-20 16:10 53.12123 4.87409 32248 ft 407 kts 267°
2026-04-20 16:11 53.12065 4.77964 32248 ft 406 kts 266°
2026-04-20 16:11 53.11994 4.68551 32247 ft 406 kts 266°
2026-04-20 16:12 53.11916 4.59171 32248 ft 406 kts 266°
2026-04-20 16:12 53.11833 4.49768 32248 ft 406 kts 266°
2026-04-20 16:13 53.11742 4.40371 32248 ft 406 kts 266°
2026-04-20 16:13 53.11644 4.30948 32250 ft 406 kts 266°
2026-04-20 16:14 53.11541 4.21604 32247 ft 405 kts 266°
2026-04-20 16:14 53.11430 4.12233 32247 ft 405 kts 266°
2026-04-20 16:15 53.11311 4.02855 32247 ft 405 kts 266°
2026-04-20 16:15 53.11184 3.93465 32247 ft 405 kts 266°
2026-04-20 16:16 53.11049 3.84068 32247 ft 405 kts 266°
2026-04-20 16:16 53.10907 3.74699 32247 ft 405 kts 266°
2026-04-20 16:17 53.10756 3.65341 32248 ft 405 kts 266°
2026-04-20 16:17 53.10596 3.55970 32248 ft 404 kts 266°
2026-04-20 16:18 53.10429 3.46658 32248 ft 404 kts 266°
2026-04-20 16:18 53.10267 3.37306 32248 ft 405 kts 266°
2026-04-20 16:19 53.10425 3.27887 32248 ft 406 kts 270°
2026-04-20 16:19 53.10990 3.18564 32247 ft 408 kts 272°
2026-04-20 16:20 53.11635 3.09166 32247 ft 409 kts 272°
2026-04-20 16:20 53.12278 2.99799 32254 ft 408 kts 271°
2026-04-20 16:21 53.12916 2.90425 32270 ft 407 kts 271°
2026-04-20 16:21 53.13546 2.81054 32286 ft 407 kts 271°
2026-04-20 16:22 53.14168 2.71662 32296 ft 407 kts 271°
2026-04-20 16:22 53.14781 2.62321 32300 ft 407 kts 271°
2026-04-20 16:23 53.15387 2.52965 32302 ft 407 kts 271°
2026-04-20 16:23 53.15987 2.43618 32302 ft 407 kts 271°
2026-04-20 16:24 53.16578 2.34273 32304 ft 407 kts 270°
2026-04-20 16:24 53.17164 2.24883 32302 ft 406 kts 270°
2026-04-20 16:25 53.17742 2.15513 32301 ft 406 kts 270°
2026-04-20 16:25 53.18313 2.06151 32301 ft 406 kts 270°
2026-04-20 16:26 53.18875 1.96809 32302 ft 406 kts 270°
2026-04-20 16:26 53.19432 1.87398 32302 ft 406 kts 270°
2026-04-20 16:27 53.19978 1.78076 32302 ft 406 kts 270°
2026-04-20 16:27 53.20521 1.68670 32081 ft 406 kts 270°
2026-04-20 16:28 53.21050 1.59436 32080 ft 389 kts 270°
2026-04-20 16:28 53.21561 1.50286 32088 ft 396 kts 270°
2026-04-20 16:29 53.22064 1.41178 31901 ft 397 kts 270°
2026-04-20 16:29 53.22313 1.36621 31651 ft 398 kts 270°
2026-04-20 16:29 53.22561 1.32034 31408 ft 399 kts 270°
2026-04-20 16:30 53.22811 1.27380 31156 ft 400 kts 270°
2026-04-20 16:30 53.23057 1.22776 30907 ft 402 kts 270°
2026-04-20 16:30 53.23303 1.18150 30657 ft 403 kts 270°
2026-04-20 16:30 53.23553 1.13437 30404 ft 404 kts 270°
2026-04-20 16:31 53.23798 1.08788 30155 ft 405 kts 269°
2026-04-20 16:31 53.24043 1.04105 29905 ft 406 kts 269°
2026-04-20 16:31 53.24286 0.99402 29655 ft 407 kts 269°
2026-04-20 16:31 53.24527 0.94700 29408 ft 407 kts 269°
2026-04-20 16:32 53.25003 0.85273 29304 ft 408 kts 269°
2026-04-20 16:32 53.25471 0.75842 29301 ft 408 kts 269°
2026-04-20 16:33 53.25702 0.71233 29296 ft 389 kts 269°
2026-04-20 16:33 53.25923 0.66859 29297 ft 369 kts 269°
2026-04-20 16:33 53.26327 0.58382 29300 ft 367 kts 269°
2026-04-20 16:34 53.26726 0.49840 29301 ft 367 kts 269°
2026-04-20 16:34 53.27119 0.41346 29301 ft 367 kts 269°
2026-04-20 16:35 53.27506 0.32897 29305 ft 367 kts 268°
2026-04-20 16:35 53.27888 0.24402 29301 ft 367 kts 268°
2026-04-20 16:36 53.28266 0.15889 29300 ft 367 kts 268°
2026-04-20 16:36 53.28828 0.07406 29300 ft 372 kts 274°
2026-04-20 16:37 53.30243 -0.00967 29248 ft 381 kts 282°
2026-04-20 16:37 53.32459 -0.09128 29299 ft 387 kts 286°
2026-04-20 16:38 53.34821 -0.17262 29305 ft 386 kts 286°
2026-04-20 16:38 53.35988 -0.21275 28947 ft 389 kts 287°
2026-04-20 16:38 53.37174 -0.25371 27929 ft 396 kts 287°
2026-04-20 16:39 53.38359 -0.29476 27055 ft 397 kts 287°
2026-04-20 16:39 53.39427 -0.33692 26598 ft 392 kts 282°
2026-04-20 16:39 53.40335 -0.38055 26350 ft 393 kts 281°
2026-04-20 16:39 53.41200 -0.42350 26103 ft 394 kts 281°
2026-04-20 16:40 53.42088 -0.46754 25850 ft 395 kts 281°
2026-04-20 16:40 53.42975 -0.51135 25598 ft 395 kts 281°
2026-04-20 16:40 53.43856 -0.55465 25349 ft 394 kts 282°
2026-04-20 16:40 53.44745 -0.59828 25097 ft 393 kts 282°
2026-04-20 16:41 53.45620 -0.64123 24849 ft 392 kts 282°
2026-04-20 16:41 53.46503 -0.68466 24602 ft 390 kts 281°
2026-04-20 16:41 53.47375 -0.72757 24353 ft 389 kts 281°
2026-04-20 16:41 53.48242 -0.77035 24104 ft 389 kts 281°
2026-04-20 16:42 53.49113 -0.81340 23853 ft 388 kts 281°
2026-04-20 16:42 53.49985 -0.85657 23601 ft 387 kts 281°
2026-04-20 16:42 53.50836 -0.89871 23354 ft 386 kts 281°
2026-04-20 16:42 53.51701 -0.94168 23102 ft 385 kts 281°
2026-04-20 16:43 53.52555 -0.98417 22852 ft 384 kts 281°
2026-04-20 16:43 53.53399 -1.02623 22603 ft 384 kts 281°
2026-04-20 16:43 53.54258 -1.06916 22350 ft 384 kts 281°
2026-04-20 16:43 53.55109 -1.11177 22099 ft 384 kts 281°
2026-04-20 16:44 53.55956 -1.15425 21835 ft 382 kts 281°
2026-04-20 16:44 53.56786 -1.19584 21260 ft 379 kts 281°
2026-04-20 16:44 53.57619 -1.23789 20466 ft 379 kts 282°
2026-04-20 16:44 53.58443 -1.27965 19750 ft 377 kts 282°
2026-04-20 16:45 53.59272 -1.32164 19064 ft 375 kts 282°
2026-04-20 16:45 53.60086 -1.36294 18385 ft 373 kts 282°
2026-04-20 16:45 53.60628 -1.39045 17930 ft 371 kts 282°
2026-04-20 16:45 53.61701 -1.44508 17029 ft 368 kts 282°
2026-04-20 16:46 53.62500 -1.48591 16355 ft 366 kts 283°
2026-04-20 16:46 53.63291 -1.52636 15683 ft 364 kts 283°
2026-04-20 16:46 53.63816 -1.55323 15236 ft 363 kts 283°
2026-04-20 16:46 53.64856 -1.60666 14360 ft 360 kts 283°
2026-04-20 16:47 53.65628 -1.64637 13705 ft 358 kts 283°
2026-04-20 16:47 53.66398 -1.68615 13063 ft 356 kts 283°
2026-04-20 16:47 53.67161 -1.72568 12424 ft 354 kts 283°
2026-04-20 16:47 53.67917 -1.76490 11781 ft 352 kts 283°
2026-04-20 16:48 53.68676 -1.80420 11095 ft 352 kts 283°
2026-04-20 16:48 53.69432 -1.84343 10336 ft 355 kts 283°
2026-04-20 16:48 53.70184 -1.88271 9728 ft 352 kts 283°
2026-04-20 16:48 53.70929 -1.92154 9502 ft 339 kts 283°
2026-04-20 16:49 53.71644 -1.95884 9288 ft 327 kts 283°
2026-04-20 16:49 53.72326 -1.99455 9081 ft 316 kts 283°
2026-04-20 16:49 53.72991 -2.02950 8887 ft 305 kts 283°
2026-04-20 16:49 53.73629 -2.06308 8693 ft 295 kts 283°
2026-04-20 16:50 53.74120 -2.09584 8510 ft 281 kts 274°
2026-04-20 16:50 53.74284 -2.12809 8344 ft 267 kts 265°
2026-04-20 16:50 53.74209 -2.15836 8311 ft 256 kts 261°
2026-04-20 16:50 53.74083 -2.18859 8304 ft 260 kts 261°
2026-04-20 16:51 53.73950 -2.21935 8298 ft 261 kts 261°
2026-04-20 16:51 53.73821 -2.24955 8293 ft 263 kts 261°
2026-04-20 16:51 53.73692 -2.28037 8292 ft 262 kts 261°
2026-04-20 16:51 53.73607 -2.30113 8295 ft 267 kts 261°
2026-04-20 16:52 53.73437 -2.34256 8298 ft 259 kts 262°
2026-04-20 16:52 53.73316 -2.37273 8297 ft 258 kts 261°
2026-04-20 16:52 53.73193 -2.40308 8295 ft 262 kts 261°
2026-04-20 16:52 53.73067 -2.43360 8297 ft 263 kts 261°
2026-04-20 16:53 53.72934 -2.46502 8302 ft 264 kts 262°
2026-04-20 16:53 53.72777 -2.49498 8286 ft 251 kts 252°
2026-04-20 16:53 53.72036 -2.52101 8284 ft 244 kts 225°
2026-04-20 16:53 53.70673 -2.53603 8278 ft 231 kts 194°
2026-04-20 16:54 53.69083 -2.54067 8288 ft 232 kts 187°
2026-04-20 16:54 53.67471 -2.54249 8285 ft 232 kts 184°
2026-04-20 16:54 53.65870 -2.54384 8284 ft 232 kts 184°
2026-04-20 16:54 53.64269 -2.54542 8278 ft 232 kts 184°
2026-04-20 16:55 53.62666 -2.54736 8102 ft 228 kts 185°
2026-04-20 16:55 53.61101 -2.54879 7999 ft 219 kts 185°
2026-04-20 16:55 53.59583 -2.54996 7989 ft 214 kts 184°
2026-04-20 16:55 53.58123 -2.55144 7987 ft 209 kts 184°
2026-04-20 16:56 53.56686 -2.55323 7988 ft 209 kts 184°
2026-04-20 16:56 53.55220 -2.55480 7987 ft 210 kts 185°
2026-04-20 16:56 53.53759 -2.55601 7990 ft 210 kts 183°
2026-04-20 16:56 53.52299 -2.55771 7990 ft 210 kts 184°
2026-04-20 16:57 53.50848 -2.55941 7990 ft 210 kts 186°
2026-04-20 16:57 53.49279 -2.55972 7992 ft 241 kts 185°
2026-04-20 16:57 53.47597 -2.55911 7997 ft 242 kts 184°
2026-04-20 16:57 53.45924 -2.55822 7998 ft 241 kts 184°
2026-04-20 16:58 53.44236 -2.55728 7982 ft 242 kts 184°
2026-04-20 16:58 53.42548 -2.55636 7713 ft 241 kts 184°
2026-04-20 16:58 53.40895 -2.55553 7388 ft 239 kts 184°
2026-04-20 16:58 53.39238 -2.55484 7062 ft 237 kts 184°
2026-04-20 16:59 53.37580 -2.55431 6734 ft 236 kts 184°
2026-04-20 16:59 53.35955 -2.55394 6411 ft 234 kts 184°
2026-04-20 16:59 53.34330 -2.55375 6101 ft 232 kts 184°
2026-04-20 16:59 53.32766 -2.55616 6004 ft 223 kts 206°
2026-04-20 17:00 53.30096 -2.58098 5660 ft 224 kts 218°
2026-04-20 17:00 53.28792 -2.59559 5181 ft 227 kts 219°
2026-04-20 17:00 53.27494 -2.61051 4718 ft 222 kts 219°
2026-04-20 17:01 53.26248 -2.62508 4243 ft 220 kts 219°
2026-04-20 17:01 53.24992 -2.64007 3767 ft 218 kts 219°
2026-04-20 17:01 53.23796 -2.65456 3519 ft 209 kts 216°
2026-04-20 17:01 53.22473 -2.66313 3489 ft 203 kts 182°
2026-04-20 17:02 53.21198 -2.65743 3482 ft 188 kts 140°
2026-04-20 17:02 53.20482 -2.64024 3497 ft 180 kts 97°
2026-04-20 17:02 53.20419 -2.61970 3511 ft 177 kts 82°
2026-04-20 17:02 53.20530 -2.59926 3505 ft 175 kts 79°
2026-04-20 17:03 53.20784 -2.58019 3492 ft 164 kts 61°
2026-04-20 17:03 53.21354 -2.56369 3502 ft 164 kts 54°
2026-04-20 17:03 53.21948 -2.54753 3501 ft 165 kts 54°
2026-04-20 17:03 53.22556 -2.53145 3501 ft 164 kts 51°
2026-04-20 17:04 53.23249 -2.51609 3480 ft 164 kts 47°
2026-04-20 17:04 53.23943 -2.50076 3375 ft 166 kts 50°
2026-04-20 17:04 53.24623 -2.48530 3085 ft 166 kts 48°
2026-04-20 17:04 53.25363 -2.47055 2769 ft 166 kts 46°
2026-04-20 17:05 53.26120 -2.45600 2428 ft 165 kts 47°
2026-04-20 17:05 53.26846 -2.44146 2079 ft 163 kts 48°
2026-04-20 17:05 53.27547 -2.42677 1745 ft 160 kts 50°
2026-04-20 17:05 53.28205 -2.41280 1532 ft 148 kts 49°
2026-04-20 17:06 53.28867 -2.39963 1404 ft 146 kts 48°
2026-04-20 17:06 53.29516 -2.38656 1344 ft 147 kts 49°
2026-04-20 17:06 53.30170 -2.37325 1230 ft 147 kts 49°
2026-04-20 17:06 53.30812 -2.36008 1090 ft 147 kts 49°
2026-04-20 17:07 53.31468 -2.34695 868 ft 147 kts 50°
2026-04-20 17:07 53.32112 -2.33366 639 ft 146 kts 51°
2026-04-20 17:07 53.32741 -2.32022 450 ft 146 kts 51°
2026-04-20 17:07 53.33371 -2.30703 286 ft 141 kts 52°
2026-04-20 17:08 53.33883 -2.29634 268 ft 81 kts 51°
2026-04-20 17:08 53.34069 -2.29250 268 ft 65 kts 51°
2026-04-20 17:08 53.34390 -2.28583 268 ft 35 kts 51°
2026-04-20 17:08 53.34640 -2.28214 268 ft 44 kts 24°
2026-04-20 17:09 53.34808 -2.28098 268 ft 0 kts 22°